sat.trackr.live / text

‹ back to catalog

STARLINK-3696

NORAD 51965 · 2022-025K

PAYLOAD ACTIVE UNKNOWN

§ Identity

Operator
Country
US
Launch date
2022-03-09
Launch site
AFETR
Launch vehicle
Mass (kg)
RCS (m²)

Purposes: comms

External: N2YO · Heavens-Above · Gunter

§ Orbital elements

Epoch: 2026-05-25T02:39:15.812352Z

Period
94.01 min
Inclination
53.1637°
Eccentricity
0.0001656
Mean motion
15.31686851 rev/d
Perigee alt
469.6 km
Apogee alt
471.9 km
Semi-major
6,848.9 km
B*
-2.1770e-5
RAAN
41.7916°
Arg perigee
104.5163°
Mean anomaly
255.6023°
Rev number
23,253

§ Raw data

STARLINK-36961 51965U 22025K   26145.11059968 -.00001041  00000+0 -21770-4 0  99922 51965  53.1637  41.7916 0001656 104.5163 255.6023 15.31686851232531

JSON: /api/v1/satellites/51965 · /tle

For live sub-satellite position, see the globe view (requires WebGL).

§ Visibility from observer

Set your observer location to see the next 7 days of passes ≥ 10°. The values pass through the URL so the page stays shareable.

No JS? Fill the form by hand. The geolocation button needs JavaScript.